| time (UTC) | temp C | wind direction | speed KPH | gust KPH | rain 1hr cm | rain 24hr cm | rain mn cm | humidity % | barometer mb |
| 20260504215010 | 25 | 276 | 1.6 | 6.4 | 0.00 | 0.00 | 0.00 | 45 | 1008.7 |
| 20260504214521 | 25 | 239 | 1.6 | 6.4 | 0.00 | 0.00 | 0.00 | 46 | 1008.7 |
| 20260504214009 | 25 | 279 | 1.6 | 6.4 | 0.00 | 0.00 | 0.00 | 49 | 1008.7 |
| 20260504213508 | 24 | 274 | 1.6 | 6.4 | 0.00 | 0.00 | 0.00 | 49 | 1008.8 |
| 20260504213024 | 24 | 253 | 1.6 | 4.8 | 0.00 | 0.00 | 0.00 | 50 | 1008.8 |
| 20260504212510 | 24 | 257 | 0.0 | 6.4 | 0.00 | 0.00 | 0.00 | 50 | 1008.8 |
| 20260504212009 | 24 | 243 | 1.6 | 12.9 | 0.00 | 0.00 | 0.00 | 49 | 1008.9 |
| 20260504211525 | 24 | 246 | 4.8 | 12.9 | 0.00 | 0.00 | 0.00 | 49 | 1009.0 |
| 20260504211007 | 24 | 235 | 4.8 | 11.3 | 0.00 | 0.00 | 0.00 | 49 | 1009.0 |
| 20260504210509 | 24 | 243 | 3.2 | 8.0 | 0.00 | 0.00 | 0.00 | 50 | 1009.1 |
| 20260504210022 | 23 | 229 | 3.2 | 9.7 | 0.00 | 0.00 | 0.00 | 51 | 1009.2 |
| 20260504205512 | 23 | 262 | 3.2 | 9.7 | 0.00 | 0.00 | 0.00 | 51 | 1009.3 |
| 20260504205009 | 23 | 269 | 4.8 | 14.5 | 0.00 | 0.00 | 0.00 | 50 | 1009.3 |
| 20260504204503 | 23 | 258 | 3.2 | 14.5 | 0.00 | 0.00 | 0.00 | 49 | 1009.4 |
| 20260504204003 | 23 | 234 | 4.8 | 12.9 | 0.00 | 0.00 | 0.00 | 49 | 1009.4 |
| 20260504203506 | 23 | 256 | 6.4 | 9.7 | 0.00 | 0.00 | 0.00 | 50 | 1009.4 |
| 20260504203012 | 23 | 253 | 4.8 | 8.0 | 0.00 | 0.00 | 0.00 | 52 | 1009.4 |
| 20260504202504 | 23 | 277 | 3.2 | 6.4 | 0.00 | 0.00 | 0.00 | 53 | 1009.6 |
| 20260504202006 | 23 | 245 | 1.6 | 12.9 | 0.00 | 0.00 | 0.00 | 52 | 1009.6 |
| 20260504201512 | 22 | 218 | 3.2 | 14.5 | 0.00 | 0.00 | 0.00 | 52 | 1009.6 |
| 20260504201014 | 22 | 245 | 3.2 | 14.5 | 0.00 | 0.00 | 0.00 | 52 | 1009.7 |
| 20260504200507 | 22 | 185 | 4.8 | 9.7 | 0.00 | 0.00 | 0.00 | 53 | 1009.7 |
| 20260504200017 | 22 | 248 | 1.6 | 14.5 | 0.00 | 0.00 | 0.00 | 52 | 1009.8 |
| 20260504195508 | 22 | 236 | 1.6 | 16.1 | 0.00 | 0.00 | 0.00 | 53 | 1009.9 |
| 20260504195009 | 22 | 182 | 6.4 | 17.7 | 0.00 | 0.00 | 0.00 | 52 | 1010.0 |
| 20260504194522 | 22 | 235 | 6.4 | 19.3 | 0.00 | 0.00 | 0.00 | 51 | 1010.0 |
| 20260504194010 | 22 | 274 | 6.4 | 19.3 | 0.00 | 0.00 | 0.00 | 51 | 1010.1 |
| 20260504193507 | 22 | 253 | 3.2 | 17.7 | 0.00 | 0.00 | 0.00 | 54 | 1010.2 |
| 20260504193013 | 21 | 266 | 4.8 | 17.7 | 0.00 | 0.00 | 0.00 | 51 | 1010.2 |
| 20260504192504 | 21 | 249 | 3.2 | 14.5 | 0.00 | 0.00 | 0.00 | 53 | 1010.2 |
| 20260504192007 | 21 | 251 | 3.2 | 14.5 | 0.00 | 0.00 | 0.00 | 53 | 1010.4 |
| 20260504191521 | 21 | 228 | 4.8 | 14.5 | 0.00 | 0.00 | 0.00 | 53 | 1010.4 |
| 20260504191006 | 21 | 264 | 6.4 | 12.9 | 0.00 | 0.00 | 0.00 | 57 | 1010.5 |
| 20260504190504 | 20 | 192 | 3.2 | 9.7 | 0.00 | 0.00 | 0.00 | 57 | 1010.4 |
| 20260504190016 | 20 | 206 | 3.2 | 14.5 | 0.00 | 0.00 | 0.00 | 57 | 1010.5 |
| 20260504185507 | 20 | 249 | 8.0 | 14.5 | 0.00 | 0.00 | 0.00 | 56 | 1010.6 |
| 20260504185006 | 20 | 195 | 3.2 | 8.0 | 0.00 | 0.00 | 0.00 | 61 | 1010.7 |
| 20260504184519 | 20 | 240 | 1.6 | 8.0 | 0.00 | 0.00 | 0.00 | 62 | 1011.0 |
| 20260504183510 | 20 | 237 | 3.2 | 9.7 | 0.00 | 0.00 | 0.00 | 58 | 1011.1 |
| 20260504183030 | 20 | 256 | 3.2 | 9.7 | 0.00 | 0.00 | 0.00 | 56 | 1011.1 |
| 20260504182510 | 20 | 131 | 1.6 | 8.0 | 0.00 | 0.00 | 0.00 | 56 | 1011.0 |
| 20260504182006 | 21 | 237 | 1.6 | 8.0 | 0.00 | 0.00 | 0.00 | 55 | 1011.7 |
| 20260504181510 | 21 | 280 | 3.2 | 8.0 | 0.00 | 0.00 | 0.00 | 52 | 1012.0 |
| 20260504181004 | 21 | 249 | 4.8 | 8.0 | 0.00 | 0.00 | 0.00 | 50 | 1011.8 |
| 20260504180509 | 21 | 242 | 3.2 | 16.1 | 0.00 | 0.00 | 0.00 | 49 | 1011.5 |
| 20260504180013 | 22 | 254 | 4.8 | 16.1 | 0.00 | 0.00 | 0.00 | 48 | 1011.5 |
| 20260504175505 | 22 | 247 | 3.2 | 16.1 | 0.00 | 0.00 | 0.00 | 49 | 1011.3 |
| 20260504175006 | 22 | 251 | 3.2 | 16.1 | 0.00 | 0.00 | 0.00 | 49 | 1011.2 |
| 20260504174517 | 22 | 263 | 4.8 | 12.9 | 0.00 | 0.00 | 0.00 | 1011.0 | |
| 20260504174010 | 22 | 241 | 4.8 | 19.3 | 0.00 | 0.00 | 0.00 | 1010.9 | |
| 20260504173021 | 22 | 299 | 3.2 | 9.7 | 0.00 | 0.00 | 0.00 | 52 | 1010.8 |
| 20260504172507 | 22 | 240 | 3.2 | 9.7 | 0.00 | 0.00 | 0.00 | 52 | 1010.8 |
| 20260504172008 | 21 | 237 | 3.2 | 9.7 | 0.00 | 0.00 | 0.00 | 51 | 1010.8 |
| 20260504171508 | 21 | 258 | 3.2 | 16.1 | 0.00 | 0.00 | 0.00 | 51 | 1010.9 |
| 20260504171006 | 21 | 177 | 1.6 | 16.1 | 0.00 | 0.00 | 0.00 | 54 | 1010.8 |
| 20260504170505 | 20 | 255 | 3.2 | 11.3 | 0.00 | 0.00 | 0.00 | 54 | 1011.0 |
| 20260504151014 | 16 | 237 | 0.0 | 8.0 | 0.00 | 0.00 | 0.00 | 66 | 1012.6 |
| 20260504150514 | 16 | 297 | 3.2 | 11.3 | 0.00 | 0.00 | 0.00 | 65 | 1012.4 |
| 20260504141010 | 13 | 230 | 3.2 | 8.0 | 0.00 | 0.00 | 0.00 | 72 | 1013.4 |
| 20260504140516 | 13 | 233 | 1.6 | 8.0 | 0.00 | 0.00 | 0.00 | 73 | 1013.5 |
| 20260504130508 | 13 | 260 | 3.2 | 8.0 | 0.00 | 0.00 | 0.00 | 65 | 1013.8 |
| 20260504110506 | 10 | 296 | 0.0 | 4.8 | 0.00 | 0.00 | 0.00 | 65 | 1013.0 |
| 20260504100510 | 10 | 289 | 0.0 | 3.2 | 0.00 | 0.00 | 0.00 | 64 | 1013.0 |
| 20260504081510 | 8 | 309 | 0.0 | 3.2 | 0.00 | 0.00 | 0.00 | 68 | 1013.6 |
| 20260504081004 | 8 | 309 | 0.0 | 3.2 | 0.00 | 0.00 | 0.00 | 67 | 1013.6 |
| 20260504080507 | 9 | 309 | 0.0 | 3.2 | 0.00 | 0.00 | 0.00 | 65 | 1013.6 |
| 20260504050511 | 11 | 273 | 0.0 | 3.2 | 0.00 | 0.00 | 0.00 | 60 | 1014.8 |
| 20260504045506 | 12 | 273 | 0.0 | 4.8 | 0.00 | 0.00 | 0.00 | 68 | 1014.6 |
| 20260504045006 | 12 | 267 | 1.6 | 4.8 | 0.00 | 0.00 | 0.00 | 63 | 1014.8 |
| 20260504044532 | 12 | 299 | 0.0 | 3.2 | 0.00 | 0.00 | 0.00 | 70 | 1015.1 |
| 20260504044012 | 12 | 299 | 0.0 | 3.2 | 0.00 | 0.00 | 0.00 | 68 | 1015.1 |
| 20260504043508 | 12 | 299 | 0.0 | 3.2 | 0.00 | 0.00 | 0.00 | 67 | 1015.3 |
| 20260504043016 | 12 | 299 | 0.0 | 3.2 | 0.00 | 0.00 | 0.00 | 66 | 1015.3 |
| 20260504042508 | 12 | 299 | 0.0 | 3.2 | 0.00 | 0.00 | 0.00 | 66 | 1015.4 |
| 20260504042010 | 12 | 299 | 0.0 | 3.2 | 0.00 | 0.00 | 0.00 | 65 | 1015.4 |
| 20260504041522 | 12 | 299 | 0.0 | 6.4 | 0.00 | 0.00 | 0.00 | 64 | 1015.4 |
| 20260504041010 | 12 | 299 | 1.6 | 6.4 | 0.00 | 0.00 | 0.00 | 66 | 1015.7 |
| 20260504040510 | 12 | 351 | 0.0 | 3.2 | 0.00 | 0.00 | 0.00 | 64 | 1015.5 |
| 20260504040026 | 12 | 351 | 0.0 | 0.0 | 0.00 | 0.00 | 0.00 | 65 | 1015.5 |
| 20260504035511 | 12 | 351 | 0.0 | 3.2 | 0.00 | 0.00 | 0.00 | 64 | 1015.4 |
| 20260504035012 | 12 | 351 | 0.0 | 3.2 | 0.00 | 0.00 | 0.00 | 65 | 1015.7 |
| 20260504034526 | 12 | 351 | 0.0 | 3.2 | 0.00 | 0.00 | 0.00 | 64 | 1015.7 |
| 20260504034017 | 12 | 351 | 0.0 | 3.2 | 0.00 | 0.00 | 0.00 | 61 | 1015.6 |
| 20260504033509 | 12 | 86 | 0.0 | 3.2 | 0.00 | 0.00 | 0.00 | 62 | 1015.5 |
| 20260504033031 | 12 | 86 | 0.0 | 1.6 | 0.00 | 0.00 | 0.00 | 60 | 1015.4 |
| 20260504032507 | 12 | 86 | 0.0 | 0.0 | 0.00 | 0.00 | 0.00 | 58 | 1015.4 |
| 20260504032009 | 12 | 86 | 0.0 | 3.2 | 0.00 | 0.00 | 0.00 | 58 | 1015.5 |
| 20260504031521 | 12 | 86 | 0.0 | 3.2 | 0.00 | 0.00 | 0.00 | 56 | 1015.4 |
| 20260504031007 | 12 | 86 | 0.0 | 4.8 | 0.00 | 0.00 | 0.00 | 58 | 1015.3 |
| 20260504030508 | 12 | 87 | 0.0 | 4.8 | 0.00 | 0.00 | 0.00 | 60 | 1015.3 |
| 20260504030026 | 12 | 303 | 0.0 | 3.2 | 0.00 | 0.00 | 0.00 | 59 | 1015.4 |
| 20260504025509 | 12 | 303 | 0.0 | 0.0 | 0.00 | 0.00 | 0.00 | 61 | 1015.5 |
| 20260504025010 | 13 | 303 | 0.0 | 0.0 | 0.00 | 0.00 | 0.00 | 58 | 1015.5 |
| 20260504024527 | 13 | 303 | 0.0 | 0.0 | 0.00 | 0.00 | 0.00 | 59 | 1015.6 |
| 20260504024006 | 13 | 303 | 0.0 | 3.2 | 0.00 | 0.00 | 0.00 | 58 | 1015.5 |
| 20260504023506 | 13 | 303 | 0.0 | 3.2 | 0.00 | 0.00 | 0.00 | 59 | 1015.4 |
| 20260504023028 | 13 | 303 | 0.0 | 3.2 | 0.00 | 0.00 | 0.00 | 58 | 1015.4 |
| 20260504022516 | 13 | 303 | 0.0 | 3.2 | 0.00 | 0.00 | 0.00 | 57 | 1015.4 |
| 20260504022010 | 13 | 303 | 0.0 | 3.2 | 0.00 | 0.00 | 0.00 | 54 | 1015.3 |
| 20260504021516 | 13 | 303 | 0.0 | 1.6 | 0.00 | 0.00 | 0.00 | 53 | 1015.2 |
| 20260504021009 | 13 | 303 | 0.0 | 3.2 | 0.00 | 0.00 | 0.00 | 53 | 1015.1 |
| 20260504020506 | 13 | 303 | 0.0 | 3.2 | 0.00 | 0.00 | 0.00 | 53 | 1015.1 |
| 20260504020028 | 13 | 303 | 0.0 | 3.2 | 0.00 | 0.00 | 0.00 | 53 | 1015.0 |
| 20260504015508 | 13 | 303 | 0.0 | 3.2 | 0.00 | 0.00 | 0.00 | 54 | 1014.9 |
| 20260504015021 | 13 | 303 | 0.0 | 1.6 | 0.00 | 0.00 | 0.00 | 53 | 1014.8 |
| 20260504014541 | 13 | 303 | 0.0 | 1.6 | 0.00 | 0.00 | 0.00 | 51 | 1014.6 |
| 20260504014004 | 13 | 303 | 0.0 | 3.2 | 0.00 | 0.00 | 0.00 | 49 | 1014.5 |
| 20260504013507 | 13 | 303 | 0.0 | 3.2 | 0.00 | 0.00 | 0.00 | 48 | 1014.5 |
| 20260504013013 | 14 | 303 | 0.0 | 3.2 | 0.00 | 0.00 | 0.00 | 48 | 1014.3 |
| 20260504012510 | 14 | 303 | 0.0 | 0.0 | 0.00 | 0.00 | 0.00 | 47 | 1014.3 |
| 20260504012008 | 14 | 303 | 0.0 | 0.0 | 0.00 | 0.00 | 0.00 | 47 | 1014.3 |
| 20260504011517 | 14 | 303 | 0.0 | 0.0 | 0.00 | 0.00 | 0.00 | 44 | 1014.5 |
| 20260504011010 | 14 | 303 | 0.0 | 0.0 | 0.00 | 0.00 | 0.00 | 46 | 1014.6 |
| 20260504010513 | 14 | 303 | 0.0 | 0.0 | 0.00 | 0.00 | 0.00 | 45 | 1014.6 |
| 20260504010018 | 15 | 303 | 0.0 | 0.0 | 0.00 | 0.00 | 0.00 | 45 | 1014.6 |
| 20260504005508 | 15 | 303 | 0.0 | 0.0 | 0.00 | 0.00 | 0.00 | 44 | 1014.7 |
| 20260504005010 | 15 | 303 | 0.0 | 0.0 | 0.00 | 0.00 | 0.00 | 43 | 1014.6 |
| 20260504004506 | 15 | 303 | 0.0 | 0.0 | 0.00 | 0.00 | 0.00 | 43 | 1014.7 |
| 20260504004004 | 15 | 303 | 0.0 | 0.0 | 0.00 | 0.00 | 0.00 | 41 | 1014.7 |
| 20260504003504 | 15 | 303 | 0.0 | 0.0 | 0.00 | 0.00 | 0.00 | 42 | 1014.7 |
| 20260504003010 | 15 | 303 | 0.0 | 0.0 | 0.00 | 0.00 | 0.00 | 42 | 1014.7 |
| 20260504002505 | 15 | 303 | 0.0 | 0.0 | 0.00 | 0.00 | 0.00 | 43 | 1014.7 |
| 20260504002006 | 16 | 303 | 0.0 | 3.2 | 0.00 | 0.00 | 0.00 | 39 | 1014.6 |
| 20260504001518 | 16 | 303 | 0.0 | 3.2 | 0.00 | 0.00 | 0.00 | 39 | 1014.6 |
| 20260504001007 | 16 | 303 | 0.0 | 3.2 | 0.00 | 0.00 | 0.00 | 41 | 1014.5 |
| 20260504000507 | 16 | 303 | 0.0 | 3.2 | 0.00 | 0.00 | 0.00 | 39 | 1014.6 |
| 20260504000035 | 16 | 303 | 0.0 | 3.2 | 0.00 | 0.00 | 0.00 | 38 | 1014.6 |
| 20260503235509 | 16 | 303 | 0.0 | 3.2 | 0.00 | 0.00 | 0.00 | 36 | 1014.6 |
| 20260503235007 | 16 | 316 | 0.0 | 3.2 | 0.00 | 0.00 | 0.00 | 36 | 1014.7 |
| 20260503234522 | 16 | 235 | 0.0 | 3.2 | 0.00 | 0.00 | 0.00 | 37 | 1014.6 |
| 20260503234009 | 16 | 234 | 0.0 | 3.2 | 0.00 | 0.00 | 0.00 | 36 | 1014.6 |
| 20260503233504 | 16 | 233 | 0.0 | 6.4 | 0.00 | 0.00 | 0.00 | 36 | 1014.5 |
| 20260503233008 | 16 | 233 | 3.2 | 6.4 | 0.00 | 0.00 | 0.00 | 33 | 1014.5 |
| 20260503232504 | 17 | 291 | 0.0 | 6.4 | 0.00 | 0.00 | 0.00 | 36 | 1014.6 |
| 20260503232007 | 17 | 293 | 0.0 | 8.0 | 0.00 | 0.00 | 0.00 | 37 | 1014.7 |
| 20260503231512 | 17 | 300 | 1.6 | 8.0 | 0.00 | 0.00 | 0.00 | 33 | 1014.7 |
| 20260503231006 | 17 | 286 | 3.2 | 8.0 | 0.00 | 0.00 | 0.00 | 33 | 1014.8 |
| 20260503230507 | 17 | 300 | 1.6 | 3.2 | 0.00 | 0.00 | 0.00 | 36 | 1014.9 |
| 20260503230018 | 17 | 301 | 0.0 | 3.2 | 0.00 | 0.00 | 0.00 | 35 | 1014.9 |
| 20260503225511 | 17 | 260 | 1.6 | 4.8 | 0.00 | 0.00 | 0.00 | 34 | 1015.0 |
| 20260503225006 | 17 | 293 | 1.6 | 11.3 | 0.00 | 0.00 | 0.00 | 34 | 1015.0 |
| 20260503224521 | 17 | 292 | 1.6 | 16.1 | 0.00 | 0.00 | 0.00 | 33 | 1015.3 |
| 20260503224009 | 17 | 283 | 6.4 | 16.1 | 0.00 | 0.00 | 0.00 | 32 | 1015.3 |
| 20260503223507 | 17 | 292 | 3.2 | 11.3 | 0.00 | 0.00 | 0.00 | 32 | 1015.1 |
| 20260503223026 | 17 | 253 | 4.8 | 11.3 | 0.00 | 0.00 | 0.00 | 32 | 1015.2 |
| 20260503222504 | 17 | 288 | 4.8 | 14.5 | 0.00 | 0.00 | 0.00 | 31 | 1015.4 |
| 20260503222005 | 17 | 270 | 1.6 | 14.5 | 0.00 | 0.00 | 0.00 | 34 | 1015.3 |
| 20260503221510 | 17 | 272 | 1.6 | 6.4 | 0.00 | 0.00 | 0.00 | 33 | 1015.3 |
| 20260503221006 | 17 | 239 | 1.6 | 6.4 | 0.00 | 0.00 | 0.00 | 34 | 1015.3 |
| 20260503220504 | 17 | 243 | 3.2 | 4.8 | 0.00 | 0.00 | 0.00 | 33 | 1015.2 |
| 20260503220019 | 17 | 239 | 0.0 | 4.8 | 0.00 | 0.00 | 0.00 | 35 | 1015.3 |
| 20260503215507 | 17 | 228 | 1.6 | 6.4 | 0.00 | 0.00 | 0.00 | 35 | 1015.3 |